Location: Hocquinghen
(50.7682°N, 1.9376°E)
Time: 05:12:30
(UTC+00:00)

Daily predictions for brighter satellites

Satellite Brightness Start Highest point End
(mag) Time Altitude Azimuth Time Altitude Azimuth Time Altitude Azimuth
CZ-2D R/B 4.4 00:01:46 10° NE 00:04:27 14° E 00:04:27 14° E
Cosmos 2333 Rocket 3.1 00:01:20 10° NNW 00:06:44 42° NE 00:07:04 42° ENE
Cosmos 2237 Rocket 4.3 00:08:01 10° NNW 00:12:30 23° NE 00:16:58 10° E
ATLAS 5 CENTAUR R/B 4.4 00:11:18 10° NW 00:15:02 21° N 00:19:11 10° NE
Cosmos 2061 Rocket 4.3 00:11:34 10° NNW 00:16:57 58° WNW 00:16:57 58° WNW
Cosmos 2082 Rocket 4.0 00:27:35 21° WNW 00:29:23 25° NW 00:34:01 10° NNE
SL-16 R/B 3.4 00:31:32 38° E 00:32:56 44° ENE 00:38:46 10° N
Cosmos 839 Rocket 4.0 00:37:10 83° NE 00:37:10 83° NE 00:43:54 10° NE
Cosmos 2233 Rocket 4.1 00:38:23 10° NNW 00:44:02 68° NW 00:44:02 68° NW
Cosmos 2219 Rocket 2.5 00:44:05 10° NNW 00:49:01 64° N 00:49:01 64° N
Helios 1B rocket 4.4 00:46:36 10° N 00:48:41 27° N 00:48:41 27° N
USA 234 3.9 00:45:25 10° ENE 00:51:44 52° N 00:58:02 10° WNW
Meteor 1-26 Rocket 4.4 00:55:35 69° NNW 00:55:35 69° NNW 01:00:46 10° N
Cosmos 1680 Rocket 4.2 00:57:03 10° NNW 01:00:48 48° NNW 01:00:48 48° NNW
Cosmos 2227 Rocket 4.5 01:02:32 12° ESE 01:03:41 12° E 01:05:54 10° ENE
ADEOS II 4.2 01:03:27 10° NE 01:06:53 17° E 01:08:11 16° ESE
Meteor 2-20 Rocket 4.4 01:10:02 73° WNW 01:10:02 73° WNW 01:16:04 10° N
COSMOS 2428 2.9 01:05:14 10° NNW 01:10:04 65° NW 01:10:04 65° NW
Cosmos 1464 Rocket 3.9 01:06:41 10° N 01:12:50 77° ENE 01:13:08 75° ESE
SJ 16-02 2.6 01:14:58 37° NE 01:14:58 37° NE 01:17:52 10° NNE
Cosmos 1980 4.4 01:10:27 10° NNW 01:16:00 51° NE 01:18:03 35° ESE
Resurs 1-4 Rocket 2.6 01:13:58 10° NNE 01:18:58 50° E 01:18:58 50° E
NOSS 0 Rocket 3.9 01:17:35 10° NNW 01:23:47 77° NE 01:24:55 60° ESE
Cosmos 2228 Rocket 4.5 01:27:29 34° NNW 01:27:29 34° NNW 01:30:34 10° N
SL-16 R/B 3.9 01:28:34 10° NNW 01:33:36 31° NE 01:38:36 10° ESE
Cosmos 2360 Rocket 4.2 01:30:27 10° NW 01:32:00 16° WNW 01:32:00 16° WNW
H-2A R/B 4.2 01:34:44 16° E 01:36:47 23° ENE 01:40:04 10° N
Cosmos 405 Rocket 4.5 01:33:52 10° N 01:35:50 29° N 01:35:50 29° N
Cosmos 1733 Rocket 3.8 01:34:44 10° N 01:38:04 50° N 01:38:04 50° N
Cosmos 1536 4.1 01:35:31 10° N 01:38:08 38° N 01:38:08 38° N
Lacrosse 5 rocket 2.8 01:41:23 33° NE 01:41:23 33° NE 01:43:43 10° ENE
Timation 2 Rocket 4.3 01:39:47 56° SSE 01:40:56 65° ESE 01:47:46 10° NE
Cosmos 1513 Rocket 4.4 01:37:14 10° NNW 01:43:34 67° W 01:43:47 66° WSW
NPP 3.7 01:38:20 10° NNE 01:43:44 69° ESE 01:44:03 67° SE
CZ-2D R/B 2.1 01:39:56 10° NNE 01:45:28 79° ESE 01:45:47 75° SE
Cosmos 858 Rocket 4.5 01:50:51 70° ESE 01:50:56 70° ESE 01:56:08 10° NNE
Cosmos 2333 Rocket 3.3 01:45:45 10° NW 01:49:02 31° WNW 01:49:02 31° WNW
Cosmos 44 Rocket 4.3 01:50:48 34° NW 01:51:05 34° NW 01:55:25 10° NNE
ERS-2 3.4 01:53:19 39° NNE 01:53:19 39° NNE 01:55:58 10° N
CZ-4B R/B 3.3 01:51:21 10° NNE 01:55:59 83° NNE 01:55:59 83° NNE
Cosmos 1937 Rocket 3.4 01:56:46 75° SE 01:56:57 77° ESE 02:02:10 10° NNE
Cosmos 2237 Rocket 2.1 01:51:40 10° NNW 01:57:23 87° ENE 01:58:51 52° SSE
Meteor 1-10 Rocket 4.2 01:57:45 64° W 01:57:55 64° WNW 02:03:29 10° N
SL-08 R/B 4.0 01:58:00 37° SE 01:59:43 56° ENE 02:04:35 10° N
ATLAS 5 CENTAUR R/B 3.7 01:56:15 10° NW 02:01:08 35° NNE 02:06:44 10° E
CBERS-1 4.2 01:56:54 10° NNE 02:02:00 62° ESE 02:02:45 55° SE
Tsikada Rocket 4.1 02:00:24 47° SSE 02:02:19 73° E 02:08:44 10° NNE
Cosmos 2034 Rocket 4.0 01:56:35 10° NNW 02:02:55 67° W 02:03:51 60° SW
STARLINK-1051 4.4 02:05:41 47° E 02:05:41 47° E 02:08:46 10° ENE
Cosmos 2285 Rocket 4.1 02:05:00 53° WSW 02:06:12 62° WNW 02:12:35 10° NNE
STARLINK-1010 4.1 02:07:29 56° E 02:07:29 56° E 02:10:54 10° ENE
Meteor 1-27 Rocket 3.6 02:07:19 66° SSW 02:08:08 83° WNW 02:13:59 10° NNE
Cosmos 1898 Rocket 3.5 02:11:46 62° W 02:12:06 64° WNW 02:17:18 10° NNE
Cosmos 1666 4.3 02:09:26 10° NNW 02:11:19 27° NNW 02:11:19 27° NNW
STARLINK-1028 4.0 02:15:13 60° E 02:15:13 60° E 02:18:42 10° ENE
STARLINK-61 3.9 02:15:54 60° NE 02:15:54 60° NE 02:19:15 10° ENE
Cosmos 990 Rocket 4.0 02:15:06 57° W 02:15:28 59° WNW 02:20:36 10° NNE
SL-16 R/B 3.0 02:16:37 42° W 02:16:37 42° W 02:22:28 10° NNW
Cosmos 1743 3.1 02:14:13 10° N 02:18:06 60° ENE 02:18:11 60° E
Cosmos 1975 4.3 02:14:46 10° N 02:18:32 36° ENE 02:20:39 21° SE
STARLINK-1021 3.8 02:20:02 67° E 02:20:02 67° E 02:23:43 10° ENE
Cosmos 2297 Rocket 2.7 02:18:26 38° SSE 02:20:09 51° ESE 02:25:37 10° NE
USA 238 DEB 4.2 02:18:57 35° S 02:21:20 49° ESE 02:27:56 10° NE
USA 238 4.2 02:19:02 35° S 02:21:27 49° ESE 02:28:03 10° NE
BREEZE-M DEB (TANK) 3.2 02:22:14 61° SE 02:22:14 61° SE 02:27:10 10° E
STARLINK-34 4.4 02:25:25 38° NE 02:25:25 38° NE 02:27:36 10° ENE
STARLINK-1019 3.6 02:24:48 76° E 02:24:48 76° E 02:28:40 10° ENE
Meteor 1-11 Rocket 4.3 02:19:14 10° NNW 02:24:46 41° W 02:24:51 41° W
STARLINK-62 4.3 02:26:20 38° NE 02:26:20 38° NE 02:28:32 10° ENE
STARLINK-81 3.6 02:26:09 74° E 02:26:09 74° E 02:29:51 10° ENE
STARLINK-1023 3.5 02:27:18 86° E 02:27:18 86° E 02:31:26 10° ENE
Cosmos 1048 Rocket 4.1 02:22:09 10° NNW 02:27:32 77° ENE 02:32:52 10° SSE
STARLINK-22 4.2 02:28:25 42° NE 02:28:25 42° NE 02:30:52 10° ENE
STARLINK-54 3.5 02:27:54 79° ENE 02:27:54 79° ENE 02:31:43 10° ENE
AQUA 3.8 02:23:23 10° N 02:28:07 62° WNW 02:28:31 59° W
Cosmos 405 3.6 02:28:56 52° N 02:28:56 52° N 02:31:45 10° N
STARLINK-77 3.5 02:29:19 80° E 02:29:19 80° E 02:33:09 10° ENE
Cosmos 2219 3.3 02:27:51 48° S 02:29:30 75° ESE 02:35:16 10° NNE
STARLINK-1012 3.5 02:29:36 85° E 02:29:36 85° E 02:33:40 10° ENE
STARLINK-25 3.5 02:30:54 83° ENE 02:30:54 83° ENE 02:34:48 10° ENE
STARLINK-71 3.4 02:32:41 86° N 02:32:41 86° N 02:36:42 10° ENE
Cosmos 2219 Rocket 3.9 02:28:55 10° NW 02:30:42 17° WNW 02:30:42 17° WNW
STARLINK-79 3.4 02:34:06 88° NNE 02:34:06 88° NNE 02:38:07 10° ENE
Cosmos 2279 Rocket 4.3 02:27:53 10° N 02:34:07 66° ENE 02:40:20 10° SSE
USA 234 3.4 02:27:52 10° ESE 02:34:22 72° NNE 02:40:54 10° WNW
STARLINK-78 3.4 02:35:41 86° WNW 02:35:44 87° NNW 02:39:47 10° ENE
Cosmos 1862 Rocket 3.9 02:36:31 48° WNW 02:36:31 48° WNW 02:40:49 10° N
STARLINK-1030 4.4 02:37:00 40° SE 02:37:00 40° SE 02:40:48 10° ENE
Meteor 1-28 Rocket 3.6 02:36:21 43° SE 02:37:20 62° ENE 02:41:04 10° N
STARLINK-57 3.4 02:37:22 82° WNW 02:37:30 84° NNW 02:41:33 10° ENE
STARLINK-48 3.8 02:38:02 51° NW 02:38:41 61° N 02:42:34 10° E
STARLINK-49 3.4 02:38:53 80° WNW 02:39:04 85° NNW 02:43:07 10° ENE
STARLINK-1026 3.5 02:39:08 76° W 02:39:26 86° NNW 02:43:36 10° ENE
Cosmos 1125 Rocket 4.5 02:37:45 24° SSE 02:40:30 43° ESE 02:45:31 10° NE
STARLINK-27 3.4 02:40:27 77° W 02:40:42 84° NNW 02:44:45 10° ENE
STARLINK-1020 4.2 02:41:48 43° SSE 02:41:53 43° SSE 02:45:49 10° ENE
IRS-1D 3.5 02:37:02 10° N 02:42:03 67° WNW 02:43:17 49° SW
STARLINK-74 3.4 02:42:03 74° W 02:42:22 83° NNW 02:46:25 10° ENE
STARLINK-39 3.4 02:43:38 71° W 02:44:01 82° NNW 02:48:03 10° ENE
STARLINK-1013 3.5 02:43:55 67° W 02:44:25 83° NNW 02:48:35 10° ENE
NOSS 3-2 (A) 3.7 02:42:50 36° S 02:45:13 61° SE 02:51:44 10° NE
STARLINK-31 3.4 02:45:15 68° W 02:45:42 81° NNW 02:49:45 10° ENE
Cosmos 2227 Rocket 2.3 02:44:21 36° S 02:46:40 70° ESE 02:52:19 10° NNE
STARLINK-1052 4.1 02:46:34 45° SSE 02:46:50 45° SSE 02:50:48 10° ENE
STARLINK-1007 3.6 02:46:18 61° W 02:46:58 81° NNW 02:51:12 10° ENE
ADEOS II 2.0 02:41:57 10° NNE 02:47:15 81° WNW 02:49:08 41° SSW
STARLINK-69 3.5 02:46:59 63° W 02:47:32 78° NNW 02:51:35 10° ENE
STARLINK-41 3.5 02:48:31 54° N 02:48:32 54° N 02:51:40 10° E
STARLINK-21 3.5 02:48:25 62° W 02:49:01 79° NNW 02:53:03 10° ENE
STARLINK-1009 3.6 02:48:43 59° W 02:49:25 81° NNW 02:53:35 10° ENE
CENTAUR R/B 3.5 02:46:11 21° S 02:49:42 39° ESE 02:56:04 10° NE
CZ-2D R/B 4.1 02:45:42 10° NNE 02:49:52 53° E 02:51:42 29° SSE
STARLINK-45 3.6 02:50:10 57° W 02:50:53 76° NNW 02:54:55 10° ENE
Cosmos 1782 Rocket 3.4 02:46:39 10° NNW 02:51:01 82° W 02:52:27 42° S
NOSS 3-3 (A) 4.4 02:44:02 10° NW 02:51:24 69° SW 02:59:35 10° SSE
NOSS 3-3 (C) 4.4 02:44:07 10° NW 02:51:29 70° SW 02:59:42 10° SSE
STARLINK-70 3.6 02:51:42 56° W 02:52:27 76° NNW 02:56:30 10° ENE
SJ 16-02 2.9 02:51:57 22° WNW 02:52:29 23° NW 02:55:59 10° N
Cosmos 2150 Rocket 4.1 02:50:34 37° SSW 02:52:47 83° ESE 02:58:18 10° NNE
Cosmos 2298 Rocket 4.0 02:51:31 40° SSW 02:53:33 90° ENE 02:58:55 10° NNE
STARLINK-76 3.5 02:53:12 55° W 02:54:01 76° NNW 02:58:03 10° ENE
STARLINK-1015 3.6 02:53:28 53° W 02:54:23 78° NNW 02:58:32 10° ENE
CZ-4C R/B 2.7 02:54:40 77° NNW 02:54:40 77° NNW 02:57:38 10° NNW
STARLINK-42 3.4 02:54:28 52° NNW 02:54:48 56° N 02:57:59 10° E
STARLINK-23 3.6 02:54:48 52° W 02:55:40 76° NNW 02:59:43 10° ENE
STARLINK-80 3.6 02:54:27 40° WNW 02:55:41 70° NNE 02:59:29 10° E
STARLINK-1027 3.9 02:55:31 47° S 02:56:12 53° SSE 03:00:22 10° ENE
Okean 1-7 2.9 02:55:06 45° SSW 02:56:27 87° W 03:00:54 10° N
STARLINK-1033 3.9 02:56:08 47° S 02:56:45 51° SSE 03:00:47 10° ENE
STARLINK-32 3.6 02:56:22 50° W 02:57:18 75° NNW 03:01:21 10° ENE
Cosmos 2242 Rocket 3.9 02:57:06 45° WSW 02:57:57 52° WNW 03:02:26 10° N
Resurs 1-4 Rocket 3.1 02:54:11 10° N 02:58:44 30° WNW 03:00:03 27° W
STARLINK-40 3.6 02:57:57 48° W 02:58:58 74° NNW 03:03:00 10° ENE
STARLINK-64 3.6 02:58:19 43° NW 02:59:11 58° N 03:02:43 10° ENE
STARLINK-1016 3.6 02:58:16 46° W 02:59:23 76° NNW 03:03:33 10° ENE
SAR-Lupe-4 3.9 02:57:22 20° SSE 02:59:43 66° ENE 03:03:17 10° N
Cosmos 1980 4.3 02:54:53 10° NW 02:59:50 33° WSW 02:59:50 33° WSW
STARLINK-44 3.6 02:59:33 46° W 03:00:37 73° NNW 03:04:39 10° ENE
IDEFIX/ARIANE 42P 3.5 02:55:48 10° NNE 03:00:48 46° E 03:05:39 11° S
Cosmos 1703 Rocket 3.5 03:00:17 44° SW 03:01:34 69° WNW 03:06:03 10° N
STARLINK-37 3.6 03:01:14 44° W 03:02:24 72° NNW 03:06:27 10° ENE
STARLINK-1031 3.8 03:02:54 46° SSW 03:03:54 61° SSE 03:08:06 10° ENE
STARLINK-36 3.6 03:02:44 43° W 03:03:56 72° NNW 03:07:59 10° ENE
STARLINK-1008 3.7 03:03:03 41° W 03:04:23 74° NNW 03:08:32 10° ENE
BREEZE-M DEB (TANK) 3.8 03:05:30 20° SSE 03:05:30 20° SSE 03:07:28 10° ESE
STARLINK-68 3.7 03:04:28 40° W 03:05:48 70° N 03:09:49 10° ENE
STARLINK-1024 3.8 03:05:41 44° SSW 03:06:40 58° SSE 03:10:45 10° ENE
Cosmos 2180 Rocket 4.5 03:00:47 10° N 03:07:02 88° E 03:13:19 10° S
STARLINK-63 3.7 03:05:59 39° W 03:07:22 70° N 03:11:24 10° ENE
ARIANE 5 R/B 2.5 03:03:23 10° NNE 03:08:37 77° WNW 03:11:22 29° SSW
STARLINK-35 3.7 03:07:30 38° W 03:08:54 70° NNW 03:12:57 10° ENE
BREEZE-M DEB (TANK) 3.6 03:03:32 10° WNW 03:09:33 35° SW 03:13:09 10° SSE
Spot 4 Rocket 4.0 03:05:06 10° NNE 03:10:19 86° ESE 03:13:36 23° SSW
STARLINK-51 3.7 03:09:05 37° W 03:10:34 70° NNW 03:14:36 10° ENE
CZ-4B R/B 2.6 03:07:31 10° SE 03:10:52 45° ENE 03:14:13 10° N
STARLINK-1035 3.7 03:10:27 42° SSW 03:11:37 62° SSE 03:15:43 10° ENE
STARLINK-30 3.7 03:10:39 35° W 03:12:13 69° N 03:16:15 10° ENE
H-2A R/B 2.3 03:11:49 40° SW 03:12:34 44° W 03:16:33 10° NNW
STARLINK-72 3.7 03:12:17 34° W 03:13:54 68° N 03:17:56 10° ENE
Cosmos 967 Rocket 4.4 03:07:34 10° NW 03:14:04 77° SW 03:20:27 10° SSE
STARLINK-1025 3.8 03:12:37 33° W 03:14:22 70° N 03:18:30 10° ENE
IRS-1C 4.3 03:09:34 10° N 03:14:48 55° WNW 03:17:19 29° SW
STARLINK-43 3.2 03:13:52 42° W 03:14:53 64° SSW 03:18:33 10° SE
STARLINK-50 3.7 03:13:50 33° W 03:15:32 68° N 03:19:33 10° ENE
STARLINK-1032 3.7 03:15:15 39° SW 03:16:36 65° SSE 03:20:43 10° ENE
NOSS 3-2 (C) 3.7 03:13:20 24° SSW 03:16:59 64° SE 03:23:33 10° NE
SAR-Lupe-1 3.9 03:14:18 16° SSE 03:17:05 87° WSW 03:20:43 10° NNW
STARLINK-59 3.7 03:15:31 31° W 03:17:18 67° N 03:21:20 10° ENE
SL-16 R/B 2.2 03:12:31 10° NW 03:18:07 62° WSW 03:23:42 10° SSE
STARLINK-56 3.7 03:17:02 30° W 03:18:51 67° N 03:22:53 10° ENE
Cosmos 389 Rocket 2.9 03:17:04 24° S 03:19:03 62° E 03:22:34 10° NNE
STARLINK-1017 3.8 03:17:24 30° W 03:19:20 69° N 03:23:29 10° ENE
Lacrosse 5 rocket 2.6 03:17:00 17° WNW 03:19:25 33° N 03:23:07 10° ENE
STARLINK-26 3.2 03:18:24 28° WNW 03:20:04 77° NNE 03:23:32 10° ESE
STARLINK-73 3.7 03:18:37 29° W 03:20:30 67° N 03:24:32 10° ENE
STARLINK 1040 3.0 03:20:14 41° NW 03:20:54 58° N 03:23:37 10° E
STARLINK-1011 3.6 03:20:02 36° SW 03:21:34 69° SSE 03:25:42 10° ENE
STARLINK-55 3.2 03:20:32 29° WNW 03:21:57 66° NNE 03:25:09 10° E
STARLINK-38 3.8 03:20:12 28° W 03:22:11 66° N 03:26:13 10° ENE
STARLINK-65 3.8 03:21:49 27° W 03:23:51 66° N 03:27:52 10° ENE
Cosmos 2082 3.8 03:20:11 22° SSW 03:24:02 81° ESE 03:29:49 10° NNE
deb Chang Zheng 4 4.1 03:20:31 10° NNE 03:24:48 58° ESE 03:28:51 11° S
CZ-2D R/B 3.7 03:20:52 10° N 03:24:57 22° NW 03:27:07 17° W
STARLINK-53 3.8 03:23:27 26° W 03:25:36 65° N 03:29:36 10° ENE
STARLINK-28 3.1 03:24:21 27° WNW 03:25:56 69° NNE 03:29:08 10° E
ERS-2 4.4 03:27:55 12° WNW 03:27:55 12° WNW 03:28:32 10° NW
STARLINK-1014 3.8 03:24:24 26° W 03:26:34 66° N 03:30:37 10° ENE
STARLINK-1036 3.6 03:24:50 33° SW 03:26:34 73° SSE 03:30:42 10° ENE
STARLINK-1044 3.6 03:29:37 31° WSW 03:31:33 76° SSE 03:35:42 10° ENE
STARLINK-33 3.1 03:30:17 23° WNW 03:32:07 69° NNE 03:35:20 10° E
Okean 3 3.4 03:30:21 16° S 03:33:40 86° E 03:37:52 10° N
STARLINK-1048 3.9 03:31:43 22° W 03:34:18 65° N 03:38:26 10° ENE
STARLINK-24 3.9 03:33:23 21° W 03:35:57 63° N 03:39:57 10° ENE
STARLINK-1047 3.6 03:34:23 28° WSW 03:36:30 80° SSE 03:40:39 10° ENE
Meteor 1-12 Rocket 4.3 03:30:29 10° NNW 03:36:30 83° W 03:42:22 10° S
Cosmos 1515 3.8 03:34:47 27° SW 03:36:35 54° WNW 03:40:21 10° N
STARLINK-1037 3.6 03:35:01 28° WSW 03:37:09 80° SSE 03:41:18 10° ENE
STARLINK-66 3.1 03:35:12 20° WNW 03:37:15 73° NNE 03:40:28 10° E
STARLINK-58 3.4 03:37:09 20° WNW 03:39:10 57° N 03:42:20 10° E
STARLINK-1049 3.9 03:36:31 20° W 03:39:18 64° N 03:43:26 10° ENE
Cosmos 1544 3.6 03:36:05 10° NNW 03:39:29 37° W 03:41:05 24° SW
Cosmos 1263 4.0 03:38:38 23° SSW 03:40:21 82° W 03:43:22 10° N
Cosmos 2237 Rocket 3.6 03:37:00 10° WNW 03:40:36 18° W 03:40:36 18° W
USA 267 3.4 03:34:28 10° ENE 03:41:02 72° SE 03:46:14 17° SW
Cosmos 1603 4.1 03:35:25 10° NNW 03:41:02 68° ENE 03:46:39 10° SE
Cosmos 1900 4.4 03:39:26 23° SW 03:42:28 67° NW 03:47:23 10° NE
Okean 1 4.3 03:41:43 23° WSW 03:43:01 28° WNW 03:46:30 10° N
Cosmos 1300 Rocket 3.4 03:39:32 10° NNW 03:43:51 67° W 03:48:07 10° S
Cosmos 494 Rocket 4.3 03:38:59 10° NW 03:44:00 45° WSW 03:48:59 10° S
SeaSat 1 3.0 03:39:13 10° SE 03:44:05 62° NE 03:48:58 10° NNW
STARLINK-1051 3.9 03:41:19 18° W 03:44:19 64° N 03:48:27 10° ENE
ATLAS 5 CENTAUR R/B 2.3 03:40:41 10° NW 03:46:17 79° SW 03:52:50 10° SE
Meteor 1-19 Rocket 4.3 03:42:03 17° SSW 03:46:19 56° WNW 03:51:44 10° N
STARLINK-1059 3.6 03:43:57 23° WSW 03:46:28 87° SSE 03:50:37 10° ENE
STARLINK-1010 4.0 03:43:25 16° W 03:46:44 63° N 03:50:56 10° E
Cosmos 1818 3.7 03:41:51 10° NW 03:47:08 51° WSW 03:52:22 10° SSE
ATLAS 3B R/B 3.2 03:40:46 10° SSW 03:47:11 53° ESE 03:53:38 10° NE
STARLINK-75 3.0 03:45:19 16° WNW 03:47:47 75° NNE 03:51:00 10° ESE
ASTRO F (AKARI) 4.3 03:45:21 10° NNE 03:48:52 84° WNW 03:51:40 14° SSW
Cosmos 2221 Rocket 3.6 03:45:25 14° SSW 03:49:12 66° WNW 03:53:38 10° N
STARLINK-1057 3.6 03:48:44 21° WSW 03:51:27 90° E 03:55:36 10° ENE
Landsat 5 4.4 03:52:25 20° SW 03:53:43 24° W 03:56:56 10° NW
Okean 2 Rocket 3.4 03:49:31 10° NNW 03:53:51 46° W 03:58:09 10° SSW
STARLINK-1028 4.0 03:50:51 14° W 03:54:16 63° N 03:58:24 10° E
STARLINK-61 3.8 03:50:46 12° WNW 03:54:18 64° N 03:58:11 10° E
Cosmos 1975 4.0 03:51:36 10° NW 03:54:49 23° W 03:56:23 18° WSW
Sich 1 Rocket 4.5 03:51:23 10° NNW 03:55:09 28° W 03:57:57 15° SW
Cosmos 2151 Rocket 3.5 03:51:01 10° NNW 03:55:23 62° W 03:59:43 10° S
Cosmos 2263 Rocket 3.6 03:50:27 10° S 03:55:35 37° ESE 04:00:47 10° NE
STARLINK-1034 3.6 03:53:31 19° WSW 03:56:25 87° NNW 04:00:35 10° ENE
Cosmos 1356 3.6 03:53:06 10° NNW 03:56:27 47° W 03:59:45 10° S
PSLV R/B 3.7 03:52:12 10° NNE 03:56:36 78° ESE 04:00:59 10° S
Cosmos 1689 Rocket 2.1 03:53:48 10° SSE 03:56:48 82° ENE 03:59:49 10° NNW
BREEZE-M DEB (TANK) 2.4 03:53:53 13° W 03:57:33 58° SSW 03:59:50 10° ESE
STARLINK-1053 4.5 03:55:07 15° SSW 03:58:11 42° SSE 04:02:06 10° ENE
STARLINK-1029 3.4 03:56:29 13° WNW 03:59:11 58° N 04:02:17 10° E
STARLINK-1021 4.0 03:55:40 13° W 03:59:18 62° N 04:03:25 10° E
STARLINK-34 3.3 03:57:48 12° WNW 04:00:43 64° N 04:03:53 10° E
STARLINK-1068 3.6 03:58:17 17° WSW 04:01:23 84° NNW 04:05:33 10° ENE
STARLINK-62 3.3 03:58:43 12° WNW 04:01:39 64° N 04:04:50 10° E
STARLINK-1061 4.4 03:59:52 14° SW 04:03:07 44° SSE 04:07:05 10° ENE
STARLINK-22 3.0 04:00:52 11° WNW 04:04:00 78° NNE 04:07:15 10° ESE
STARLINK-1019 4.0 04:00:26 12° W 04:04:16 62° N 04:08:24 10° E
Cosmos 2297 Rocket 3.0 04:00:14 15° WSW 04:04:24 36° NW 04:09:38 10° NNE
CZ-2C R/B 3.5 04:00:48 10° N 04:04:36 39° WNW 04:07:46 13° SW
Cosmos 1378 Rocket 4.1 04:00:31 10° S 04:04:48 62° E 04:09:09 10° NNE
STARLINK-81 3.9 04:01:22 12° W 04:05:07 61° N 04:09:08 10° E
Cosmos 1269 Rocket 4.4 04:00:21 10° NW 04:05:22 43° WSW 04:10:20 10° S
STARLINK-54 3.9 04:03:07 11° W 04:07:00 62° N 04:11:01 10° E
STARLINK-1023 4.0 04:03:08 11° W 04:07:13 63° N 04:11:24 10° E
STARLINK-1067 4.3 04:04:40 13° SW 04:08:06 47° SSE 04:12:06 10° ENE
STARLINK-77 3.9 04:04:32 11° W 04:08:26 62° N 04:12:26 10° E
Cosmos 1092 Rocket 4.2 04:02:29 10° S 04:08:50 82° E 04:15:10 10° N
Aureole 3 Rocket 4.5 04:04:32 10° N 04:09:10 41° ENE 04:12:40 10° SE
STARLINK-1012 4.0 04:05:13 10° W 04:09:16 62° N 04:13:24 10° E
STARLINK-25 3.9 04:06:07 10° W 04:10:05 62° N 04:14:06 10° E
STARLINK-1060 3.7 04:07:50 14° WSW 04:11:21 79° NNW 04:15:31 10° ENE
STARLINK-71 3.9 04:07:59 10° W 04:11:59 62° N 04:16:00 10° E
USA 238 DEB 4.1 04:06:24 13° WSW 04:12:17 54° NW 04:19:11 10° NE
USA 238 4.1 04:06:29 13° WSW 04:12:24 55° NW 04:19:19 10° NE
ATLAS CENTAUR R/B 0.4 04:11:36 18° SW 04:12:50 73° SE 04:15:38 10° ENE
STARLINK-1058 4.2 04:09:26 12° SW 04:13:02 50° SSE 04:17:04 10° ENE
STARLINK-79 3.9 04:09:25 10° W 04:13:25 62° N 04:17:25 10° E
Meteor 2-4 Rocket 4.0 04:08:26 10° SSW 04:14:13 54° WNW 04:19:59 10° N
Cosmos 2219 4.5 04:09:46 12° W 04:14:16 28° NW 04:19:11 10° NNE
STARLINK-78 3.9 04:11:05 10° W 04:15:05 62° N 04:19:05 10° E
STARLINK-1030 3.7 04:12:38 13° W 04:16:21 77° NNW 04:20:31 10° ENE
Geosat 4.3 04:11:42 10° NE 04:16:45 70° ESE 04:21:45 10° SSW
STARLINK-57 3.9 04:12:51 10° WNW 04:16:52 62° N 04:20:52 10° E
STARLINK-48 3.4 04:13:33 10° WNW 04:17:29 79° SSW 04:21:22 10° ESE
USA 234 3.4 04:11:14 10° SE 04:17:35 53° SW 04:23:58 10° WNW
STARLINK-1043 4.1 04:14:14 11° SW 04:18:02 53° SSE 04:22:05 10° ENE
STARLINK-49 3.9 04:14:24 10° WNW 04:18:25 62° N 04:22:25 10° E
STARLINK-1065 4.1 04:14:49 11° SW 04:18:38 54° SSE 04:22:41 10° ENE
Cosmos 2251 Rocket 3.7 04:13:50 10° NNW 04:19:14 83° ENE 04:24:34 10° SSE
STARLINK-1026 4.0 04:15:07 10° W 04:19:14 63° N 04:23:22 10° E
Cosmos 2026 Rocket 4.2 04:13:44 10° S 04:19:48 74° E 04:25:52 10° NNE
STARLINK-27 3.9 04:16:03 10° WNW 04:20:03 62° N 04:24:04 10° E
STARLINK-1020 3.7 04:17:26 11° W 04:21:21 74° NNW 04:25:31 10° ENE
STARLINK-74 3.9 04:17:43 10° WNW 04:21:44 62° N 04:25:44 10° E
Cosmos 1125 Rocket 4.3 04:18:02 11° WSW 04:22:41 36° NW 04:27:36 10° NNE
Nadezhda 4 Rocket 4.2 04:16:30 10° SSW 04:22:43 56° WNW 04:28:57 10° N
STARLINK-39 3.9 04:19:22 10° WNW 04:23:23 63° N 04:27:23 10° E
STARLINK-1013 4.0 04:20:06 10° WNW 04:24:14 63° N 04:28:22 10° E
STARLINK-41 2.8 04:21:26 10° WNW 04:24:37 80° SSW 04:27:47 10° ESE
STARLINK-31 3.9 04:21:03 10° WNW 04:25:04 63° N 04:29:05 10° E
ADEOS II 3.8 04:22:58 10° NNW 04:26:10 17° NW 04:29:23 10° W
STARLINK-1052 3.8 04:22:13 10° W 04:26:20 72° N 04:30:29 10° ENE
STARLINK-69 3.9 04:22:54 10° WNW 04:26:55 64° N 04:30:56 10° E
STARLINK-1007 4.0 04:22:50 10° WNW 04:27:01 64° N 04:31:12 10° E
ALOS 4.2 04:23:26 10° NNE 04:27:41 34° E 04:31:55 10° SSE
STARLINK-1063 4.0 04:23:53 10° SW 04:27:58 60° SSE 04:32:03 10° ENE
STARLINK-21 3.9 04:24:22 10° WNW 04:28:23 64° N 04:32:23 10° E
MSX 4.0 04:23:23 10° N 04:29:02 57° WNW 04:34:40 10° SW
STARLINK-1009 4.0 04:25:07 10° WNW 04:29:15 64° N 04:33:22 10° E
STARLINK-45 3.9 04:26:14 10° WNW 04:30:16 65° N 04:34:17 10° E
H-2A R/B 4.0 04:26:37 10° NNE 04:30:28 38° E 04:34:10 10° SSE
STARLINK-42 2.9 04:27:51 10° WNW 04:31:02 66° SSW 04:34:14 10° ESE
Cosmos 2227 Rocket 3.4 04:26:23 10° WSW 04:31:15 28° NW 04:36:08 10° NNE
STARLINK-70 3.9 04:27:49 10° WNW 04:31:50 65° N 04:35:51 10° E
STARLINK-1064 3.9 04:28:50 10° SW 04:32:56 63° SSE 04:37:02 10° ENE
Cosmos 2227 4.4 04:27:43 10° SSW 04:33:20 80° ESE 04:38:59 10° NNE
STARLINK-76 3.9 04:29:22 10° WNW 04:33:23 64° N 04:37:24 10° E
STARLINK-80 3.8 04:30:15 10° WNW 04:33:54 44° SSW 04:37:32 10° SE
STARLINK-1015 4.0 04:30:04 10° WNW 04:34:12 65° N 04:38:20 10° E
STARLINK-23 3.9 04:31:02 10° WNW 04:35:03 65° N 04:39:04 10° E
STARLINK-1027 3.9 04:31:58 10° W 04:36:13 69° N 04:40:29 10° ENE
STARLINK-1033 3.8 04:32:09 10° W 04:36:18 69° N 04:40:27 10° ENE
SL-24 R/B 4.3 04:31:15 10° SSE 04:36:18 86° WSW 04:40:45 10° NNW
NOSS 3-2 (A) 4.2 04:30:37 10° W 04:36:24 44° NNW 04:43:03 10° NE
STARLINK-32 3.9 04:32:40 10° WNW 04:36:41 65° N 04:40:42 10° E
Cosmos 1943 3.2 04:31:03 10° NW 04:36:43 64° WSW 04:42:20 10° SSE
STARLINK-64 3.2 04:33:16 10° WNW 04:36:50 87° NNE 04:40:25 10° ESE
STARLINK-1041 3.8 04:33:46 10° SW 04:37:53 67° SSE 04:42:00 10° ENE
STARLINK-40 3.9 04:34:19 10° WNW 04:38:21 66° N 04:42:22 10° E
STARLINK-1016 4.0 04:35:05 10° WNW 04:39:14 66° N 04:43:21 10° E
STARLINK-44 3.9 04:35:59 10° WNW 04:40:00 66° N 04:44:02 10° E
Okean 1 Rocket 3.3 04:35:50 10° NNW 04:40:02 47° W 04:44:15 10° SSW
CENTAUR R/B 2.9 04:33:54 10° WSW 04:40:04 62° NW 04:47:25 10° NE
IDEFIX/ARIANE 42P 3.5 04:35:43 10° N 04:40:16 32° WNW 04:44:48 10° WSW
